This demonstration page uses our WeatherBlox Daily Observations layout. Learn more.

Hourly Observations for September 27, 2019

Temp ( °F °C ) Dew Point ( °F °C ) Humidity (%) Winds ( mph kmh ) Pressure ( in mb ) Visibility ( mi km ) Precip ( " mm )
12:15 am 00:15 Clear 64 17.5 62 16.8 96 96 S 17 28 29.59 1002 10 16.0934 0 0
12:35 am 00:35 Clear 64 17.5 63 17 97 97 S 16 26 29.58 1002 10 16.0934 0 0
12:55 am 00:55 Partly Cloudy 64 17.5 63 17.1 98 98 S 15 24 29.57 1001 10 16.0934 0 0
1:15 am 01:15 Mostly Cloudy 64 17.6 64 17.5 99 99 S 16 26 29.56 1001 7 11.26538 0 0
1:35 am 01:35 Cloudy 64 17.8 64 17.6 99 99 S 13 20 29.56 1001 7 11.26538 0 0
1:55 am 01:55 Cloudy 64 18 64 17.7 98 98 S 14 22 29.54 1000 10 16.0934 0 0
2:15 am 02:15 Cloudy 65 18.1 64 17.8 98 98 S 16 26 29.53 1000 10 16.0934 0 0
2:35 am 02:35 Cloudy 65 18.1 64 17.8 98 98 S 16 26 29.52 1000 10 16.0934 0 0
2:55 am 02:55 Cloudy 65 18.2 64 18 99 99 S 14 22 29.52 1000 10 16.0934 0 0
3:15 am 03:15 Cloudy 65 18.5 65 18.1 98 98 S 15 24 29.52 1000 10 16.0934 0 0
3:35 am 03:35 Cloudy 65 18.5 65 18.1 98 98 SSW 12 19 29.52 1000 7 11.26538 0 0
3:55 am 03:55 Cloudy 65 18.4 65 18.1 98 98 SSW 12 19 29.52 1000 7 11.26538 0 0
4:15 am 04:15 Cloudy 65 18.3 65 18.1 99 99 SSW 12 19 29.52 1000 7 11.26538 0 0
4:35 am 04:35 Cloudy 65 18.3 65 18.1 99 99 WNW 9 15 29.56 1001 7 11.26538 0 0
4:55 am 04:55 Cloudy 65 18.5 65 18.1 98 98 WNW 3 6 29.56 1001 7 11.26538 0 0
5:15 am 05:15 Cloudy with Mist and Fog 65 18.2 64 18 99 99 Calm 29.55 1001 5 8.0467 0 0
5:35 am 05:35 Cloudy with Mist and Fog 64 18 64 18 100 100 N 3 6 29.55 1001 4 6.43736 0 0
5:55 am 05:55 Cloudy with Mist and Fog 64 17.9 64 17.8 99 99 NNE 5 7 29.55 1001 5 8.0467 0 0
6:15 am 06:15 Cloudy 64 17.8 64 17.7 99 99 NNW 7 11 29.56 1001 7 11.26538 0 0
6:35 am 06:35 Mostly Cloudy 64 17.6 62 16.9 96 96 NNW 14 22 29.56 1001 10 16.0934 0 0
6:55 am 06:55 Partly Cloudy 62 16.4 57 13.9 85 85 N 15 24 29.59 1002 10 16.0934 0 0
7:15 am 07:15 Clear 60 15.8 54 12 78 78 N 14 22 29.59 1002 10 16.0934 0 0
7:35 am 07:35 Sunny 60 15.3 52 11.1 76 76 N 13 20 29.61 1003 10 16.0934 0 0
7:55 am 07:55 Sunny 59 15 51 10.6 75 75 N 13 20 29.61 1003 10 16.0934 0 0
8:15 am 08:15 Sunny 59 15 50 10.1 73 73 N 14 22 29.63 1003 10 16.0934 0 0
8:35 am 08:35 Sunny 59 15 49 9.7 71 71 N 14 22 29.63 1003 10 16.0934 0 0
8:55 am 08:55 Sunny 60 15.8 49 9.6 67 67 N 13 20 29.62 1003 10 16.0934 0 0
9:15 am 09:15 Sunny 62 16.9 49 9.6 62 62 N 15 24 29.63 1004 10 16.0934 0 0
9:35 am 09:35 Sunny 64 17.9 49 9.3 57 57 NNE 16 26 29.63 1003 10 16.0934 0 0
9:55 am 09:55 Sunny 67 19.2 48 8.9 51 51 NNE 20 31 29.62 1003 10 16.0934 0 0
10:15 am 10:15 Sunny 66 19 47 8.1 49 49 NNE 22 35 29.64 1004 10 16.0934 0 0
10:35 am 10:35 Sunny 67 19.2 46 7.8 48 48 NNE 17 28 29.65 1004 10 16.0934 0 0
10:55 am 10:55 Sunny 69 20.5 47 8.2 45 45 NNE 18 30 29.64 1004 10 16.0934 0 0
11:15 am 11:15 Sunny 69 20.6 47 8.2 45 45 NNE 20 31 29.65 1004 10 16.0934 0 0
11:35 am 11:35 Sunny 69 20.5 48 8.9 47 47 N 12 19 29.66 1005 10 16.0934 0 0
11:55 am 11:55 Sunny 69 20.3 48 9 48 48 NNE 15 24 29.67 1005 10 16.0934 0 0
12:15 pm 12:15 Sunny 67 19.3 47 8.2 49 49 NNE 15 24 29.66 1005 10 16.0934 0 0
12:35 pm 12:35 Sunny 69 20.6 49 9.3 48 48 N 13 20 29.67 1005 10 16.0934 0 0
12:55 pm 12:55 Sunny 70 20.9 49 9.2 47 47 N 14 22 29.66 1004 10 16.0934 0 0
1:15 pm 13:15 Sunny 69 20.5 48 9 48 48 N 17 28 29.68 1005 10 16.0934 0 0
1:35 pm 13:35 Sunny 69 20.3 48 9 48 48 N 10 17 29.69 1005 10 16.0934 0 0
1:55 pm 13:55 Sunny 68 20 48 8.8 49 49 N 12 19 29.68 1005 10 16.0934 0 0
2:15 pm 14:15 Sunny 69 20.8 49 9.2 48 48 NNE 16 26 29.69 1005 10 16.0934 0 0
2:35 pm 14:35 Sunny 70 21.3 49 9.4 47 47 N 9 15 29.68 1005 10 16.0934 0 0
2:55 pm 14:55 Sunny 71 21.6 49 9.3 46 46 NNE 15 24 29.67 1005 10 16.0934 0 0
3:15 pm 15:15 Sunny 72 22 47 8.5 42 42 NE 16 26 29.67 1005 10 16.0934 0 0
3:35 pm 15:35 Sunny 73 22.8 48 9.1 42 42 NNE 17 28 29.66 1004 10 16.0934 0 0
3:55 pm 15:55 Sunny 72 22.3 48 9 43 43 NNE 15 24 29.66 1004 10 16.0934 0 0
4:15 pm 16:15 Sunny 71 21.6 49 9.5 46 46 N 16 26 29.66 1005 10 16.0934 0 0
4:35 pm 16:35 Sunny 69 20.7 49 9.3 48 48 N 16 26 29.68 1005 10 16.0934 0 0
4:55 pm 16:55 Sunny 68 20 48 9.1 50 50 NNE 16 26 29.69 1005 10 16.0934 0 0
5:15 pm 17:15 Sunny 69 20.3 48 9.1 49 49 NNE 16 26 29.7 1006 10 16.0934 0 0
5:35 pm 17:35 Sunny 68 20 49 9.5 51 51 NNE 14 22 29.7 1006 10 16.0934 0 0
5:55 pm 17:55 Sunny 68 19.8 49 9.7 52 52 NNE 14 22 29.71 1006 10 16.0934 0 0
6:15 pm 18:15 Sunny 67 19.5 50 10 54 54 NNE 15 24 29.71 1006 10 16.0934 0 0
6:35 pm 18:35 Sunny 66 19 50 10 56 56 NE 13 20 29.73 1007 10 16.0934 0 0
6:55 pm 18:55 Sunny 65 18.6 51 10.3 59 59 NE 10 17 29.75 1007 10 16.0934 0 0
7:15 pm 19:15 Sunny 65 18.6 51 10.5 59 59 NE 13 20 29.75 1007 10 16.0934 0 0
7:35 pm 19:35 Clear 64 17.8 51 10.7 63 63 NE 9 15 29.77 1008 10 16.0934 0 0
7:55 pm 19:55 Clear 64 17.5 52 11 66 66 NNE 9 15 29.77 1008 10 16.0934 0 0
8:15 pm 20:15 Clear 62 16.8 51 10.7 67 67 NNE 9 15 29.79 1009 10 16.0934 0 0
8:35 pm 20:35 Clear 61 16.1 51 10.5 70 70 NNE 9 15 29.8 1009 10 16.0934 0 0
8:50 pm 20:50 Clear 61 16 50 9.8 67 67 NNE 12 19 29.81 1010 10 16.0934 0 0
9:15 pm 21:15 Clear 60 15.5 48 9.1 66 66 NNE 13 20 29.83 1010 10 16.0934 0 0
9:35 pm 21:35 Clear 59 14.8 48 9 68 68 NNE 12 19 29.83 1010 10 16.0934 0 0
9:55 pm 21:55 Clear 58 14.2 49 9.4 73 73 NNE 10 17 29.85 1011 10 16.0934 0 0
10:15 pm 22:15 Clear 57 13.8 49 9.6 76 76 N 9 15 29.85 1011 10 16.0934 0 0
10:35 pm 22:35 Clear 57 14 50 10 77 77 N 13 20 29.87 1011 10 16.0934 0 0
10:55 pm 22:55 Clear 57 14 50 10 77 77 N 13 20 29.9 1012 10 16.0934 0 0
11:15 pm 23:15 Clear 56 13.6 50 10 79 79 NNE 15 24 29.92 1013 10 16.0934 0 0
11:35 pm 23:35 Clear 56 13.1 49 9.7 80 80 NNE 14 22 29.94 1014 10 16.0934 0 0
11:55 pm 23:55 Clear 55 13 49 9.7 81 81 NE 14 22 29.94 1014 10 16.0934 0 0

Powered by AerisWeather